Home   Weather   Belo Horizonte   Past weeks

Flag for Brazil Past Weather in Belo Horizonte, Minas Gerais, Brazil — Yesterday and Last 2 Weeks

Now
72 °F

Passing clouds.


Feels Like: 76 °F
Forecast: 55 / 76 °F
Wind: 7 mph from Northeast

Location: Belo Horizonte Airport

Current Time: May 29, 2017 at 12:18:40 pm

Latest Report: May 29, 2017 at 11:00 am


Visibility: N/A

Pressure: 30.24 "Hg (27.37 "Hg at 860m altitude)

Humidity: 57%

Dew Point: 55 °F

Location of Belo HorizonteLocation

Past Weather in Belo Horizonte — Graph

°F

Belo Horizonte Temperature Yesterday

Maximum temperature yesterday: 75 °F (at 2:00 pm)
Minimum temperature yesterday: 57 °F (at 5:00 am)
Average temperature yesterday: 65 °F

High & Low Weather Summary for the Past Weeks

 TemperatureHumidityPressure
High82 °F (May 14, 1:00 pm)100% (May 16, 5:00 am)30.27 "Hg (May 16, 5:00 am)
Low57 °F (May 27, 4:00 am)37% (May 14, 1:00 pm)29.95 "Hg (May 14, 2:00 pm)
Average67 °F79%30.12 "Hg
* Reported May 14 11:00 am — May 29 11:00 am, Belo Horizonte. Weather by CustomWeather, © 2017

Note: Actual official high and low records may vary slightly from our data, if they occured in-between our weather recording intervals... More about our weather records

Advertising

Belo Horizonte Weather History for the Previous 24 Hours

Scroll right to see more
 ConditionsComfort  
Time TempWeatherWind HumidityBarometerVisibility
11:00 am
Mon, May 29
72 °FPassing clouds.7 mph57%30.24 "HgN/A
10:00 am70 °FPassing clouds.8 mph64%30.24 "HgN/A
9:00 am64 °FSunny.2 mph78%30.24 "Hg10 mi
8:00 am59 °FSunny.2 mph88%30.24 "Hg10 mi
7:00 am57 °FSunny.1 mph94%30.21 "Hg10 mi
6:00 am57 °FClear.2 mph94%30.21 "Hg10 mi
5:00 am57 °FClear.2 mph88%30.21 "Hg10 mi
4:00 am59 °FClear.2 mph88%30.18 "Hg10 mi
3:00 am59 °FClear.2 mph88%30.21 "Hg10 mi
2:00 am57 °FClear.2 mph94%30.21 "Hg10 mi
1:00 am59 °FClear.3 mph88%30.21 "Hg10 mi
12:00 am61 °FClear.2 mph83%30.24 "Hg10 mi
11:00 pm
Sun, May 28
61 °FClear.No wind83%30.24 "Hg10 mi
10:00 pm61 °FClear.3 mph83%30.24 "Hg10 mi
9:00 pm66 °FClear.10 mph68%30.21 "Hg10 mi
8:00 pm66 °FClear.9 mph68%30.21 "Hg10 mi
7:00 pm68 °FPassing clouds.9 mph60%30.21 "HgN/A
6:00 pm70 °FPassing clouds.8 mph57%30.18 "HgN/A
5:00 pm73 °FScattered clouds.6 mph50%30.18 "HgN/A
4:00 pm73 °FPartly sunny.8 mph47%30.15 "HgN/A
3:00 pm73 °FPartly sunny.10 mph50%30.15 "HgN/A
2:00 pm75 °FScattered clouds.8 mph54%30.21 "HgN/A
1:00 pm73 °FPartly sunny.9 mph57%30.21 "HgN/A
12:00 pm72 °FPartly sunny.7 mph61%30.24 "HgN/A
Weather by CustomWeather, © 2017

See weather overviewHow to use our weather pages